Temp
12 11 11 11 11 11 11 11 11 11 11 11 11 11 11 11 10 10 10 9 9 9 9 9 8 8 8 8 8 8 8 8 7 7 6 5 2 0 1 1 1 2 2
12 11 11 11 10 10 10 10 10 10 11 11 11 11 11 10 10 9 9 9 9 9 9 9 9 9 8 8 8 8 8 8 7 7 6 6 2 1 1 0 1 2 1
12 11 11 11 10 10 10 10 11 11 11 11 11 10 10 10 10 10 9 9 9 10 9 9 9 9 8 8 8 8 8 8 8 7 7 6 4 2 1 1 1 1 1
12 12 11 11 11 10 11 11 11 11 11 10 10 10 10 10 10 10 10 10 10 10 10 9 9 9 9 8 9 8 8 8 8 8 7 6 4 3 2 2 2 1 1
12 12 11 11 11 11 11 10 11 11 11 10 10 10 10 9 9 9 10 10 10 10 10 10 10 9 8 9 9 8 8 8 8 8 7 6 5 4 3 3 2 2 2
12 12 11 11 10 10 11 11 11 11 10 10 10 11 11 10 9 9 10 10 11 10 10 10 10 10 9 8 9 8 8 9 8 8 7 7 5 4 4 3 3 3 3
12 12 11 11 11 11 11 10 10 10 10 10 10 11 11 10 10 10 10 10 10 10 10 10 10 9 9 9 8 8 8 9 8 8 8 8 6 4 4 4 3 3 3
14 13 12 11 11 10 10 10 10 10 10 10 10 10 10 10 10 10 10 10 10 10 10 10 10 10 9 9 8 8 8 8 9 9 8 8 7 5 4 4 3 3 2
13 13 13 12 11 10 10 10 10 9 10 10 10 11 11 11 11 10 10 10 10 10 10 10 10 10 9 8 8 8 8 8 8 9 8 9 8 7 5 5 4 4 4
13 13 12 12 11 11 10 10 10 9 10 10 11 11 11 11 10 10 10 10 11 10 10 10 10 9 8 7 7 7 8 8 8 9 9 9 8 7 6 6 5 4 4
13 12 12 11 11 10 10 10 9 9 10 11 11 11 11 11 11 11 11 10 10 10 10 10 10 10 8 8 7 7 8 8 8 9 9 9 8 7 6 6 6 5 5
13 12 12 12 11 10 9 9 10 10 11 11 11 11 12 12 11 11 11 10 10 10 9 9 9 9 8 7 7 7 7 8 8 8 8 9 8 8 7 7 7 6 5
12 11 11 11 10 10 10 10 10 10 10 11 11 11 12 11 11 11 11 10 9 9 9 9 9 9 9 8 8 8 8 8 8 8 7 8 8 7 7 7 7 6 6
11 11 11 11 10 9 10 10 10 10 10 11 11 11 11 11 11 11 10 10 10 9 8 9 8 8 8 8 8 8 7 7 7 8 7 7 7 7 7 7 7 6 6
11 10 11 11 10 9 9 9 10 10 10 11 11 11 11 10 10 10 10 10 10 10 9 8 8 8 8 8 8 6 7 7 7 7 8 7 6 7 7 7 7 7 7
9 8 9 9 9 9 9 9 9 10 10 10 10 10 10 10 10 9 9 9 9 9 9 9 8 8 8 8 8 8 7 7 7 6 7 7 7 6 7 7 7 7 6
7 7 8 9 9 9 9 9 9 10 10 10 10 10 9 9 9 9 9 9 9 9 9 9 8 8 8 8 8 8 8 7 7 8 7 7 7 6 6 7 7 6 7
7 7 8 9 9 9 9 9 10 10 10 10 10 10 9 9 9 8 8 8 9 9 9 9 9 8 7 7 7 7 7 7 8 7 7 7 7 6 7 6 7 6 6
6 7 7 8 8 8 9 9 9 10 9 9 9 8 9 9 9 9 8 8 8 8 8 8 8 8 7 7 7 7 7 7 6 8 6 6 6 6 7 6 6 6 7
5 6 6 7 7 8 8 8 9 8 8 8 8 8 9 9 9 9 9 8 8 8 8 8 8 8 7 7 7 6 6 6 6 6 7 6 6 7 6 7 6 6 6
4 5 5 6 6 7 7 7 8 8 7 8 8 9 9 8 8 8 8 8 8 8 8 7 7 8 7 6 6 6 6 6 6 6 6 7 6 6 6 6 6 6 5
4 4 5 5 6 6 6 7 7 7 7 8 8 9 8 8 8 8 8 8 8 8 8 7 7 7 7 7 6 5 5 6 6 6 6 6 6 7 6 6 6 6 6
3 3 4 4 5 5 6 7 7 7 7 7 8 8 8 8 8 8 9 9 8 8 8 8 7 6 6 6 7 7 5 5 6 6 6 6 6 6 6 6 6 6 6
3 4 4 3 4 4 6 6 6 6 6 7 7 7 7 8 8 8 9 9 8 8 8 7 7 6 5 5 5 6 6 5 5 5 6 6 6 6 6 6 6 5 6
2 2 2 2 3 4 5 5 5 6 6 7 7 7 7 7 8 8 8 8 8 7 6 6 6 6 6 5 4 4 6 5 4 5 5 5 6 6 6 6 6 6 5
1 1 2 2 3 4 4 4 5 5 5 6 6 6 7 7 7 7 6 6 6 5 5 4 4 4 4 4 4 4 4 5 5 5 4 5 5 6 6 6 5 6 5
Height
3187 3189 3191 3192 3191 3192 3192 3192 3191 3189 3187 3186 3183 3182 3182 3180 3178 3176 3174 3172 3169 3163 3155 3147 3148 3144 3142 3140 3139 3137 3134 3130 3125 3120 3115 3111 3109 3107 3108 3109 3110 3113 3114
3185 3186 3187 3189 3189 3189 3190 3189 3188 3187 3185 3183 3181 3180 3179 3177 3175 3173 3172 3170 3164 3161 3156 3151 3145 3142 3140 3138 3138 3136 3133 3129 3124 3119 3114 3110 3108 3108 3108 3109 3111 3112 3112
3180 3182 3183 3185 3185 3185 3185 3184 3183 3183 3182 3181 3179 3178 3176 3174 3172 3170 3167 3165 3160 3158 3153 3150 3144 3142 3140 3137 3136 3135 3132 3127 3124 3119 3114 3111 3109 3109 3109 3110 3112 3113 3113
3177 3178 3179 3181 3181 3181 3182 3181 3180 3179 3178 3177 3175 3174 3172 3170 3167 3164 3162 3160 3157 3154 3151 3149 3144 3141 3139 3135 3135 3134 3132 3127 3123 3119 3115 3111 3111 3111 3111 3110 3112 3112 3113
3172 3174 3175 3175 3176 3176 3177 3177 3176 3175 3173 3172 3171 3169 3166 3163 3161 3158 3157 3155 3153 3150 3147 3145 3142 3139 3137 3135 3135 3134 3131 3127 3124 3120 3116 3113 3113 3112 3112 3112 3111 3112 3112
3167 3168 3169 3170 3171 3171 3171 3172 3170 3169 3168 3166 3165 3163 3160 3157 3153 3151 3150 3149 3148 3146 3143 3141 3139 3137 3136 3134 3133 3132 3130 3127 3124 3120 3117 3115 3115 3114 3114 3114 3113 3114 3114
3160 3162 3163 3165 3166 3166 3166 3166 3166 3164 3163 3162 3160 3158 3154 3152 3149 3147 3146 3145 3145 3142 3140 3138 3135 3133 3133 3132 3130 3130 3128 3126 3124 3121 3118 3116 3115 3115 3115 3114 3115 3114 3115
3154 3155 3156 3158 3159 3160 3161 3161 3160 3160 3160 3158 3156 3154 3151 3149 3148 3145 3144 3143 3141 3139 3136 3134 3132 3130 3128 3127 3126 3127 3126 3126 3124 3121 3118 3117 3116 3116 3115 3114 3115 3115 3115
3147 3149 3150 3151 3152 3154 3155 3156 3156 3156 3157 3155 3154 3152 3150 3148 3146 3144 3143 3141 3139 3136 3133 3131 3128 3125 3122 3123 3122 3125 3124 3124 3123 3120 3118 3116 3116 3116 3115 3115 3115 3115 3115
3141 3143 3144 3145 3147 3148 3150 3151 3152 3153 3154 3153 3151 3149 3147 3145 3143 3141 3140 3139 3137 3135 3132 3128 3125 3119 3118 3119 3119 3121 3121 3123 3123 3120 3118 3117 3115 3117 3115 3114 3114 3116 3115
3137 3138 3139 3140 3142 3144 3146 3147 3148 3149 3149 3149 3148 3146 3144 3142 3140 3139 3138 3136 3134 3132 3130 3127 3122 3118 3118 3118 3117 3117 3119 3122 3121 3120 3118 3118 3116 3116 3116 3115 3115 3114 3114
3131 3133 3134 3135 3137 3139 3141 3143 3144 3145 3145 3144 3143 3142 3141 3139 3138 3136 3135 3133 3131 3130 3128 3126 3122 3119 3117 3116 3115 3116 3119 3121 3121 3119 3118 3117 3117 3117 3116 3115 3114 3114 3114
3124 3126 3128 3129 3132 3134 3136 3138 3139 3140 3140 3140 3139 3138 3137 3135 3134 3132 3131 3130 3128 3127 3126 3125 3122 3120 3117 3120 3119 3119 3120 3120 3122 3120 3118 3117 3115 3117 3116 3115 3113 3112 3112
3119 3121 3123 3124 3127 3130 3132 3134 3135 3136 3136 3136 3134 3133 3131 3129 3127 3126 3125 3125 3124 3124 3123 3122 3121 3120 3118 3118 3121 3120 3120 3121 3120 3120 3119 3118 3116 3114 3115 3114 3114 3113 3111
3113 3116 3117 3119 3122 3125 3127 3129 3130 3131 3131 3130 3129 3127 3125 3124 3122 3119 3118 3118 3118 3119 3120 3121 3119 3118 3118 3116 3115 3118 3119 3120 3119 3119 3120 3118 3118 3115 3114 3114 3114 3113 3112
3109 3111 3113 3115 3117 3119 3121 3123 3124 3125 3125 3124 3123 3121 3119 3118 3116 3115 3113 3112 3111 3112 3113 3114 3115 3115 3115 3115 3114 3111 3118 3119 3117 3117 3118 3117 3116 3116 3114 3113 3111 3112 3112
3103 3108 3110 3112 3113 3115 3116 3118 3119 3119 3119 3119 3117 3115 3114 3112 3110 3109 3108 3107 3105 3105 3105 3107 3108 3109 3110 3110 3111 3111 3109 3114 3117 3116 3116 3115 3114 3116 3114 3112 3111 3111 3111
3096 3100 3104 3106 3107 3109 3111 3113 3114 3113 3114 3114 3112 3110 3108 3106 3104 3103 3102 3101 3100 3098 3098 3099 3100 3101 3103 3105 3105 3105 3107 3109 3114 3113 3113 3112 3112 3112 3113 3112 3112 3109 3110
3089 3094 3099 3101 3102 3103 3105 3107 3107 3108 3108 3109 3108 3105 3103 3101 3099 3098 3095 3094 3094 3093 3092 3092 3092 3093 3094 3097 3099 3099 3101 3101 3106 3109 3109 3108 3108 3108 3108 3111 3110 3110 3110
3088 3086 3093 3096 3097 3097 3100 3101 3102 3102 3103 3102 3100 3100 3098 3097 3094 3092 3090 3088 3086 3086 3086 3085 3085 3085 3086 3089 3091 3091 3093 3093 3096 3100 3099 3102 3102 3104 3104 3106 3107 3107 3107
3082 3081 3088 3092 3094 3094 3095 3096 3096 3096 3097 3097 3095 3094 3092 3091 3089 3087 3084 3082 3080 3080 3079 3079 3079 3079 3078 3080 3082 3084 3085 3086 3088 3091 3095 3096 3098 3098 3099 3101 3100 3103 3101
3078 3081 3085 3088 3089 3091 3091 3091 3090 3091 3091 3090 3088 3086 3086 3084 3083 3080 3079 3078 3075 3072 3071 3071 3071 3072 3072 3073 3073 3076 3078 3080 3082 3083 3087 3089 3092 3095 3095 3097 3098 3098 3100
3075 3079 3082 3084 3084 3084 3085 3087 3087 3086 3084 3085 3083 3081 3080 3078 3076 3073 3072 3070 3068 3065 3064 3062 3062 3062 3064 3065 3067 3067 3069 3071 3073 3075 3079 3081 3084 3087 3090 3093 3094 3094 3096
3069 3072 3074 3078 3078 3080 3080 3082 3082 3079 3079 3078 3076 3075 3073 3070 3068 3066 3064 3061 3059 3057 3054 3053 3052 3051 3052 3054 3057 3060 3060 3063 3064 3068 3070 3072 3076 3080 3082 3085 3087 3090 3090
3065 3067 3071 3073 3070 3074 3077 3077 3074 3072 3072 3071 3070 3067 3065 3064 3062 3059 3056 3053 3050 3046 3043 3042 3042 3041 3041 3042 3043 3047 3051 3052 3056 3058 3060 3063 3066 3071 3075 3078 3081 3083 3085
3065 3066 3066 3068 3068 3069 3070 3070 3068 3068 3067 3064 3063 3061 3060 3058 3054 3050 3047 3043 3039 3035 3033 3031 3030 3030 3030 3031 3033 3035 3038 3042 3044 3048 3050 3053 3055 3060 3066 3070 3073 3076 3078
Wind_Speed
6 4 5 4 5 6 8 9 11 11 14 15 17 18 19 20 19 20 20 22 25 29 33 31 26 32 15 16 17 17 21 23 21 19 16 12 5 13 8 7 6 6 6
11 9 7 9 10 10 11 12 13 14 14 14 16 16 16 17 18 20 22 22 25 31 34 28 32 25 14 13 17 17 17 20 20 18 14 10 1 4 5 9 9 6 3
17 16 12 13 15 14 14 14 14 15 16 17 17 19 16 16 18 21 23 27 32 31 30 23 22 19 15 12 17 15 15 18 18 17 11 11 11 7 4 7 6 5 6
14 20 18 19 21 21 17 15 14 16 17 21 22 22 20 22 25 24 25 30 31 26 21 27 23 17 15 10 11 12 13 16 18 16 11 10 10 8 6 7 5 5 2
19 20 21 22 26 26 23 22 22 22 22 24 28 29 29 31 28 28 30 31 23 23 20 23 25 18 15 9 10 10 15 17 17 15 9 8 8 8 7 11 5 2 4
25 23 23 27 29 29 28 27 25 26 28 24 25 27 26 25 28 29 25 18 19 21 20 17 20 20 17 10 12 13 15 16 15 14 9 7 5 6 4 8 10 7 2
24 24 26 27 28 27 27 26 27 28 23 24 23 24 20 18 21 20 18 17 17 17 17 21 19 15 15 14 14 13 12 13 13 12 10 6 1 4 7 7 8 6 3
23 24 27 29 29 29 28 30 28 21 21 18 15 17 16 17 17 17 16 15 15 16 17 18 17 19 17 15 16 9 10 8 9 10 9 8 3 3 5 4 6 3 2
23 23 24 25 26 27 26 24 21 19 11 10 10 12 14 15 15 14 15 15 14 16 17 18 22 26 19 14 11 7 8 4 5 7 7 8 5 2 3 4 4 5 5
23 21 21 20 21 21 21 21 19 15 11 13 13 13 13 14 13 11 12 11 14 16 18 19 23 20 12 9 7 7 6 3 2 3 6 8 6 0 1 2 3 3 1
22 21 20 20 20 19 19 16 14 16 16 14 15 16 16 15 13 12 13 14 16 17 18 21 22 18 5 9 8 9 7 5 2 3 4 7 6 2 1 2 2 2 3
24 24 24 22 20 16 15 14 12 12 13 15 16 18 19 19 18 17 15 13 14 15 15 16 17 16 11 5 10 6 7 7 4 2 4 4 6 4 2 1 2 0 1
24 24 24 22 20 18 18 18 16 15 15 17 18 20 21 21 22 21 21 19 17 14 12 11 10 9 8 7 2 6 7 7 5 2 2 3 4 4 3 2 2 1 1
26 26 25 24 23 23 21 18 17 18 18 19 22 25 27 26 24 23 23 22 21 20 15 9 5 5 4 2 7 8 8 7 5 3 4 2 2 5 5 3 2 2 1
26 26 26 25 24 24 21 19 18 18 19 22 26 26 24 24 23 23 23 24 23 20 20 17 12 8 8 4 7 17 8 8 6 5 4 4 1 1 4 4 2 2 2
28 28 26 23 21 22 22 20 19 19 21 26 24 22 22 21 21 22 23 23 23 23 21 21 21 19 14 12 9 4 19 14 11 8 8 6 5 4 3 3 4 2 1
28 28 26 25 25 24 22 20 18 20 26 24 19 17 17 18 18 19 20 22 22 23 22 22 22 22 24 21 19 17 15 26 20 15 12 8 6 7 3 4 3 1 1
30 31 29 29 27 25 22 20 20 23 23 20 15 17 17 18 19 20 20 20 21 21 21 23 23 22 22 26 26 24 22 16 21 25 21 13 11 9 7 6 5 4 3
31 28 28 28 27 24 23 22 23 23 21 16 14 14 14 18 21 22 22 23 21 21 20 21 24 23 21 22 27 28 26 21 16 20 29 20 16 13 12 10 9 6 7
27 26 25 26 25 24 23 24 24 20 17 16 14 14 17 19 21 22 22 22 23 22 21 19 20 23 21 20 25 25 30 27 18 14 15 18 20 17 15 14 17 17 14
20 20 22 22 21 21 22 21 19 16 15 15 16 17 18 19 19 20 21 22 21 24 24 23 22 21 22 20 21 24 23 28 29 22 16 18 19 21 18 21 15 18 14
16 14 15 16 17 17 15 13 13 14 16 16 17 18 20 21 21 21 21 21 20 21 23 26 27 25 23 21 22 23 24 24 30 29 24 23 22 20 22 21 17 12 13
20 18 14 14 11 13 15 18 17 16 16 17 18 20 21 22 22 22 24 27 27 25 23 24 27 29 28 27 24 25 25 25 27 30 32 31 28 23 23 23 20 19 21
26 30 35 36 31 23 19 24 19 16 16 17 19 22 22 22 24 25 28 29 29 29 28 28 28 30 31 31 29 28 27 27 24 28 34 35 32 27 28 25 23 24 20
11 12 13 15 16 25 22 17 13 14 15 17 19 20 22 24 25 26 28 29 30 28 28 29 31 33 34 34 33 31 30 30 28 29 29 31 38 33 30 24 26 24 23
9 9 9 9 10 12 11 10 12 14 15 17 19 20 21 22 24 27 31 33 33 31 30 30 31 33 34 34 33 33 34 32 33 29 32 33 32 39 38 36 31 31 26
Wind_Direction
183 204 239 248 257 272 288 301 309 300 283 283 282 284 290 291 294 299 300 304 309 305 305 301 299 325 311 331 331 340 350 345 343 340 331 334 301 312 205 190 235 210 216
218 228 248 256 266 280 289 292 281 286 294 286 288 291 294 298 303 307 314 314 313 321 315 315 327 313 317 336 337 336 348 348 344 346 346 354 203 35 215 167 152 119 151
226 228 240 258 271 279 287 283 279 276 285 294 298 301 309 307 307 309 310 318 317 324 323 314 317 322 319 327 333 336 346 348 348 353 1 12 6 33 109 159 161 156 131
244 236 237 254 268 272 278 288 300 300 301 298 294 299 298 306 302 304 300 309 316 316 321 321 314 308 312 332 348 340 352 350 354 3 20 28 36 67 67 122 163 175 200
253 252 247 252 259 272 277 277 280 290 296 297 296 292 295 298 291 294 297 306 308 312 311 324 317 307 302 308 328 333 355 347 352 12 26 40 48 97 109 96 137 105 165
255 256 257 261 264 269 267 269 281 291 301 302 305 308 309 301 295 297 300 303 305 309 314 311 319 314 302 290 297 303 331 338 345 13 17 51 57 98 101 97 109 88 106
253 254 257 260 261 265 265 273 288 300 300 306 308 311 311 306 318 317 315 313 310 307 308 312 308 302 302 292 290 302 317 333 342 3 15 40 359 127 124 119 95 111 111
256 261 262 262 264 267 272 282 290 292 299 304 322 328 322 325 327 329 332 326 323 321 321 322 327 316 295 275 277 284 304 325 339 2 15 32 22 230 136 107 137 138 71
252 254 256 259 260 264 269 273 276 286 301 308 318 327 324 331 328 328 324 330 334 335 335 323 324 316 294 270 265 277 281 305 333 6 21 23 40 261 183 134 97 144 182
251 255 253 249 251 254 260 265 270 265 279 299 306 310 316 331 328 331 332 333 336 334 333 332 334 341 318 271 240 242 247 228 315 30 35 29 32 342 177 194 130 55 82
255 255 252 252 251 253 253 253 260 266 277 286 295 301 306 307 311 320 318 320 321 322 333 335 344 346 279 314 264 214 218 191 222 66 59 36 38 14 152 156 172 101 348
251 250 248 251 251 239 236 239 243 257 271 284 297 303 301 301 299 296 296 303 304 311 320 334 348 351 341 309 237 186 208 179 205 99 82 55 36 38 8 167 132 47 1
242 247 249 247 235 228 231 236 247 260 277 293 300 304 304 300 294 292 290 287 286 292 298 319 352 5 18 340 248 187 227 196 189 230 101 81 32 22 25 7 332 140 326
242 244 243 240 231 229 230 241 256 271 288 298 302 301 298 295 292 289 287 285 282 279 278 271 293 331 40 72 285 227 225 224 191 189 291 60 45 347 355 12 311 232 160
240 238 238 236 233 230 233 245 260 273 283 292 297 297 299 300 297 294 289 286 280 274 268 264 250 260 274 269 254 317 251 240 207 199 220 284 304 333 324 336 343 298 188
232 226 225 224 221 221 230 244 257 274 285 289 286 289 293 293 294 293 294 289 280 276 270 259 255 249 249 251 250 273 292 275 249 218 210 233 268 276 294 318 337 346 267
218 222 226 225 225 229 236 248 263 277 284 281 286 293 298 302 304 302 296 291 287 277 270 266 258 251 247 247 246 267 259 288 278 261 244 217 233 265 287 299 305 308 272
220 222 225 226 228 235 245 250 266 274 277 278 284 296 309 316 312 302 298 293 288 285 278 268 262 253 243 240 243 250 251 274 277 269 267 235 233 239 234 250 249 271 264
225 226 228 230 232 236 241 249 260 263 268 274 288 297 307 315 317 313 303 290 287 281 278 277 271 265 249 237 241 243 243 260 273 271 270 268 233 223 244 247 233 228 238
227 228 232 234 235 236 244 247 250 256 260 270 279 295 310 313 320 322 312 295 283 279 278 277 276 273 266 244 241 245 236 242 250 257 232 258 256 237 248 249 251 232 205
224 225 231 235 238 238 241 244 250 259 272 281 288 296 302 307 316 323 326 314 296 282 276 274 274 271 269 255 246 244 243 236 231 237 253 241 276 257 244 257 263 256 209
216 221 226 229 233 239 241 257 267 276 281 288 295 298 305 312 310 311 315 313 312 299 286 278 272 268 262 258 254 239 245 241 230 229 236 240 241 254 256 255 253 204 215
239 246 236 239 258 279 277 282 281 282 286 290 295 299 301 306 310 310 309 306 302 296 288 278 272 267 263 258 254 256 242 243 240 230 230 230 227 229 235 256 236 225 234
249 253 253 258 264 271 274 271 271 277 282 293 299 301 305 311 312 311 309 309 305 297 287 276 268 262 259 255 251 248 251 235 240 236 232 232 225 226 222 252 242 242 217
232 231 235 240 231 244 259 259 276 288 295 298 299 307 312 312 309 310 311 312 305 297 291 281 269 264 262 256 250 244 241 249 231 240 238 238 230 222 222 221 239 238 238
224 232 242 250 247 249 265 281 288 295 298 306 310 313 313 313 320 322 319 314 308 299 293 285 277 267 259 255 254 248 243 240 239 231 240 235 237 222 216 226 227 228 234